KB2UHF-8 Weather Reports


time (UTC)temp
F
wind
direction
speed
knots
gust
knots
rain 1hr
in
rain 24hr
in
rain mn
in
humidity
%
barometer
mb
20260504050517 55 248 1.7 3.5 0.00 0.00 0.00 51 1004.6
20260504045516 55 248 2.6 3.5 0.00 0.00 0.00 51 1004.6
20260504044515 55 225 1.7 2.6 0.00 0.00 0.00 50 1004.7
20260504043516 56 248 2.6 3.5 0.00 0.00 0.00 49 1004.7
20260504042516 57 248 1.7 2.6 0.00 0.00 0.00 48 1004.7
20260504041536 58 248 2.6 4.3 0.00 0.00 0.00 46 1005.0
20260504040516 58 248 2.6 6.1 0.00 0.00 0.00 46 1005.1
20260504035515 59 248 1.7 2.6 0.00 0.00 0.00 45 1005.2
20260504034516 59 270 1.7 3.5 0.00 0.00 0.00 45 1005.4
20260504033515 58 270 1.7 2.6 0.00 0.00 0.00 46 1005.3
20260504032515 58 270 1.7 2.6 0.00 0.00 0.00 46 1005.4
20260504031515 58 270 1.7 2.6 0.00 0.00 0.00 46 1005.5
20260504030515 59 270 1.7 2.6 0.00 0.00 0.00 45 1005.5
20260504025515 59 270 1.7 3.5 0.00 0.00 0.00 44 1005.5
20260504024536 60 270 1.7 3.5 0.00 0.00 0.00 44 1005.6
20260504023516 60 270 1.7 2.6 0.00 0.00 0.00 43 1005.4
20260504022515 61 270 1.7 5.2 0.00 0.00 0.00 43 1005.3
20260504021516 62 270 1.7 3.5 0.00 0.00 0.00 40 1005.3
20260504020535 62 248 1.7 2.6 0.00 0.00 0.00 40 1005.2
20260504015515 62 248 1.7 5.2 0.00 0.00 0.00 40 1005.2
20260504014516 62 270 0.9 2.6 0.00 0.00 0.00 40 1005.0
20260504013535 63 0.0 1.7 0.00 0.00 0.00 39 1004.9
20260504012515 63 270 0.9 2.6 0.00 0.00 0.00 39 1004.9
20260504011515 64 270 1.7 6.1 0.00 0.00 0.00 38 1004.8
20260504010515 65 270 1.7 5.2 0.00 0.00 0.00 38 1004.8
20260504005555 66 270 2.6 5.2 0.00 0.00 0.00 37 1004.8
20260504004515 67 270 3.5 7.0 0.00 0.00 0.00 34 1004.8
20260504003515 68 293 4.3 10.4 0.00 0.00 0.00 35 1005.1
20260504002515 69 293 2.6 5.2 0.00 0.00 0.00 36 1004.9
20260504001515 69 315 3.5 7.0 0.00 0.00 0.00 36 1004.9
20260504000515 69 315 3.5 9.6 0.00 0.00 0.00 35 1005.0
20260503235515 69 293 5.2 9.6 0.00 0.00 0.00 35 1004.8
20260503234515 70 315 5.2 10.4 0.00 0.00 0.00 33 1004.7
20260503233555 70 293 4.3 11.3 0.00 0.00 0.00 31 1004.7
20260503232515 70 315 6.1 11.3 0.00 0.00 0.00 32 1004.6
20260503231617 70 315 5.2 10.4 0.00 0.00 0.00 33 1004.6
20260503230557 71 293 6.1 10.4 0.00 0.00 0.00 32 1004.6
20260503225515 71 315 4.3 10.4 0.00 0.00 0.00 33 1004.5
20260503224517 71 315 7.8 12.2 0.00 0.00 0.00 34 1004.4
20260503223517 71 315 5.2 9.6 0.00 0.00 0.00 35 1004.5
20260503222517 71 293 6.1 14.8 0.00 0.00 0.00 35 1004.5
20260503221517 71 293 7.0 11.3 0.00 0.00 0.00 33 1004.4
20260503220517 72 270 4.3 9.6 0.00 0.00 0.00 33 1004.5
20260503215517 71 270 4.3 11.3 0.00 0.00 0.00 39 1004.5
20260503214517 71 270 7.0 11.3 0.00 0.00 0.00 33 1004.6
20260503213517 71 270 7.8 14.8 0.00 0.00 0.00 34 1004.6
20260503212517 71 293 7.8 13.0 0.00 0.00 0.00 33 1004.6
20260503211519 71 270 6.1 10.4 0.00 0.00 0.00 37 1004.5
20260503210517 71 270 4.3 11.3 0.00 0.00 0.00 36 1004.8
20260503205517 70 270 4.3 8.7 0.00 0.00 0.00 39 1004.8
20260503204519 70 338 6.1 12.2 0.00 0.00 0.00 39 1004.9
20260503203517 70 270 4.3 9.6 0.00 0.00 0.00 39 1005.1
20260503202517 69 270 7.0 14.8 0.00 0.00 0.00 39 1005.0
20260503201517 69 270 8.7 14.8 0.00 0.00 0.00 39 1005.2
20260503200517 69 248 5.2 12.2 0.00 0.00 0.00 40 1005.3
20260503195517 69 270 7.0 12.2 0.00 0.00 0.00 41 1005.3
20260503194517 68 270 7.8 13.9 0.00 0.00 0.00 40 1005.3
20260503193517 67 293 7.0 11.3 0.00 0.00 0.00 40 1005.4
20260503192537 68 225 5.2 11.3 0.00 0.00 0.00 42 1005.6
20260503191517 67 248 7.0 13.0 0.00 0.00 0.00 42 1005.6
20260503190537 67 225 4.3 9.6 0.00 0.00 0.00 42 1005.7
20260503185517 65 225 6.1 13.0 0.00 0.00 0.00 44 1005.7
20260503184517 65 248 6.1 13.0 0.00 0.00 0.00 44 1005.7
20260503183517 65 225 5.2 11.3 0.00 0.00 0.00 50 1005.8
20260503182517 64 270 7.0 12.2 0.00 0.00 0.00 44 1005.9
20260503181517 64 248 7.0 13.0 0.00 0.00 0.00 48 1005.9
20260503180557 64 248 7.8 15.6 0.00 0.00 0.00 45 1006.0
20260503175517 63 225 7.0 13.9 0.00 0.00 0.00 46 1006.2
20260503174537 64 225 5.2 12.2 0.00 0.00 0.00 50 1006.1
20260503173517 63 225 4.3 8.7 0.00 0.00 0.00 49 1006.2
20260503172517 62 270 7.0 15.6 0.00 0.00 0.00 48 1006.3
20260503171537 62 248 8.7 14.8 0.00 0.00 0.00 46 1006.6
20260503170537 62 270 5.2 14.8 0.00 0.00 0.00 50 1006.7
20260503150518 59 225 6.1 14.8 0.00 0.00 0.00 51 1007.2
20260503130518 53 203 5.2 13.0 0.00 0.00 0.00 62 1008.3
20260503110516 51 225 6.1 14.8 0.00 0.00 0.00 63 1009.5
20260503081516 51 225 5.2 10.4 0.00 0.00 0.00 49 1011.0
20260503080516 51 225 6.1 13.0 0.00 0.00 0.00 49 1011.1
20260503072516 51 225 4.3 8.7 0.00 0.00 0.00 49 1011.2
20260503071516 50 225 4.3 8.7 0.00 0.00 0.00 50 1011.4
20260503070616 50 225 3.5 7.8 0.00 0.00 0.00 50 1011.5
20260503054536 49 225 4.3 9.6 0.00 0.00 0.00 50 1012.1
20260503053516 49 225 3.5 9.6 0.00 0.00 0.00 50 1012.2
20260503052537 49 225 3.5 8.7 0.00 0.00 0.00 50 1012.2